User: anonymous   Login
Location: Unspecified
(0.0000°N, 0.0000°E)
Time: 13:49:50
(UTC+00:00)
Language:

Terriers - Orbit

View from above orbital plane
View from above orbital plane
View from above satellite
View from above satellite

Ground track
Ground track

The orbit data is extracted from the following two-line orbital elements,

1 25735U 99026A   17114.94516325 +.00004526 +00000-0 +97499-4 0  9996
2 25735 097.1762 281.3131 0004221 186.6171 173.5023 15.45100858998008
Epoch (UTC): 24 April 2017 22:41:02
Eccentricity: 0.0004221
inclination: 97.1762°
perigee height: 428 km
apogee height: 434 km
right ascension of ascending node: 281.3131°
argument of perigee: 186.6171°
revolutions per day: 15.45100858
mean anomaly at epoch: 173.5023°
orbit number at epoch: 99800

The dashed part of the orbit path shows where the satellite is in the earth's shadow,  

DLR